| time (UTC) | temp F | wind direction | speed MPH | gust MPH | rain 1hr in | rain 24hr in | rain mn in | humidity % | barometer mb |
| 20260504081736 | 37 | 235 | 0.0 | 1.0 | 0.00 | 0.00 | 0.00 | 78 | |
| 20260504080735 | 37 | 235 | 0.0 | 1.0 | 0.00 | 0.00 | 0.00 | 77 | |
| 20260504050735 | 39 | 192 | 0.0 | 0.0 | 0.00 | 0.00 | 0.00 | 75 | |
| 20260504045736 | 39 | 192 | 0.0 | 2.0 | 0.00 | 0.00 | 0.00 | 76 | |
| 20260504044735 | 40 | 192 | 0.0 | 4.0 | 0.00 | 0.00 | 0.00 | 74 | |
| 20260504043736 | 40 | 175 | 0.0 | 3.0 | 0.00 | 0.00 | 0.00 | 73 | |
| 20260504042735 | 40 | 174 | 1.0 | 1.0 | 0.00 | 0.00 | 0.00 | 73 | |
| 20260504041735 | 41 | 174 | 1.0 | 3.0 | 0.00 | 0.00 | 0.00 | 70 | |
| 20260504040735 | 41 | 175 | 0.0 | 3.0 | 0.00 | 0.00 | 0.00 | 69 | |
| 20260504035735 | 42 | 173 | 1.0 | 6.0 | 0.00 | 0.00 | 0.00 | 68 | |
| 20260504034735 | 41 | 223 | 0.0 | 2.0 | 0.00 | 0.00 | 0.00 | 71 | |
| 20260504033735 | 41 | 224 | 1.0 | 3.0 | 0.00 | 0.00 | 0.00 | 70 | |
| 20260504032735 | 41 | 224 | 0.0 | 3.0 | 0.00 | 0.00 | 0.00 | 68 | |
| 20260504031735 | 42 | 223 | 0.0 | 3.0 | 0.00 | 0.00 | 0.00 | 69 | |
| 20260504030735 | 42 | 228 | 1.0 | 2.0 | 0.00 | 0.00 | 0.00 | 69 | |
| 20260504025735 | 42 | 232 | 1.0 | 3.0 | 0.00 | 0.00 | 0.00 | 65 | |
| 20260504024735 | 42 | 242 | 0.0 | 2.0 | 0.00 | 0.00 | 0.00 | 67 | |
| 20260504023735 | 42 | 243 | 3.0 | 4.0 | 0.00 | 0.00 | 0.00 | 67 | |
| 20260504022735 | 42 | 228 | 0.0 | 0.0 | 0.00 | 0.00 | 0.00 | 67 | |
| 20260504021735 | 43 | 228 | 0.0 | 0.0 | 0.00 | 0.00 | 0.00 | 65 | |
| 20260504020735 | 43 | 228 | 0.0 | 0.0 | 0.00 | 0.00 | 0.00 | 65 | |
| 20260504015735 | 43 | 227 | 0.0 | 0.0 | 0.00 | 0.00 | 0.00 | 65 | |
| 20260504014735 | 44 | 227 | 0.0 | 2.0 | 0.00 | 0.00 | 0.00 | 63 | |
| 20260504013735 | 45 | 228 | 0.0 | 1.0 | 0.00 | 0.00 | 0.00 | 61 | |
| 20260504012735 | 45 | 227 | 0.0 | 2.0 | 0.00 | 0.00 | 0.00 | 60 | |
| 20260504011735 | 46 | 227 | 0.0 | 2.0 | 0.00 | 0.00 | 0.00 | 58 | |
| 20260504010735 | 47 | 228 | 1.0 | 2.0 | 0.00 | 0.00 | 0.00 | 58 | |
| 20260504005735 | 47 | 227 | 2.0 | 2.0 | 0.00 | 0.00 | 0.00 | 55 | |
| 20260504004735 | 48 | 227 | 2.0 | 2.0 | 0.00 | 0.00 | 0.00 | 53 | |
| 20260504003735 | 49 | 228 | 0.0 | 1.0 | 0.00 | 0.00 | 0.00 | 51 | |
| 20260504002735 | 51 | 228 | 0.0 | 2.0 | 0.00 | 0.00 | 0.00 | 49 | |
| 20260504001735 | 52 | 227 | 1.0 | 5.0 | 0.00 | 0.00 | 0.00 | 47 | |
| 20260504000735 | 53 | 219 | 3.0 | 5.0 | 0.00 | 0.00 | 0.00 | 45 | |
| 20260503235735 | 53 | 194 | 2.0 | 5.0 | 0.00 | 0.00 | 0.00 | 43 | |
| 20260503234735 | 54 | 286 | 1.0 | 5.0 | 0.00 | 0.00 | 0.00 | 43 | |
| 20260503233735 | 54 | 275 | 1.0 | 6.0 | 0.00 | 0.00 | 0.00 | 43 | |
| 20260503232735 | 55 | 271 | 2.0 | 8.0 | 0.00 | 0.00 | 0.00 | 41 | |
| 20260503231736 | 55 | 259 | 9.0 | 10.0 | 0.00 | 0.00 | 0.00 | 41 | |
| 20260503230735 | 56 | 311 | 8.0 | 16.0 | 0.00 | 0.00 | 0.00 | 40 | |
| 20260503225735 | 57 | 277 | 3.0 | 16.0 | 0.00 | 0.00 | 0.00 | 39 | |
| 20260503224735 | 58 | 286 | 3.0 | 18.0 | 0.00 | 0.00 | 0.00 | 38 | |
| 20260503223735 | 57 | 329 | 6.0 | 13.0 | 0.00 | 0.00 | 0.00 | 39 | |
| 20260503222735 | 58 | 315 | 4.0 | 11.0 | 0.00 | 0.00 | 0.00 | 38 | |
| 20260503221735 | 58 | 277 | 3.0 | 11.0 | 0.00 | 0.00 | 0.00 | 39 | |
| 20260503220735 | 57 | 284 | 9.0 | 15.0 | 0.00 | 0.00 | 0.00 | 38 | |
| 20260503215735 | 58 | 345 | 3.0 | 15.0 | 0.00 | 0.00 | 0.00 | 37 | |
| 20260503214735 | 58 | 292 | 1.0 | 9.0 | 0.00 | 0.00 | 0.00 | 37 | |
| 20260503213736 | 58 | 313 | 4.0 | 15.0 | 0.00 | 0.00 | 0.00 | 36 | |
| 20260503212735 | 58 | 257 | 12.0 | 21.0 | 0.00 | 0.00 | 0.00 | 38 | |
| 20260503211735 | 57 | 263 | 17.0 | 21.0 | 0.00 | 0.00 | 0.00 | 36 | |
| 20260503210736 | 57 | 343 | 8.0 | 19.0 | 0.00 | 0.00 | 0.00 | 35 | |
| 20260503205735 | 57 | 279 | 12.0 | 22.0 | 0.00 | 0.00 | 0.00 | 35 | |
| 20260503204735 | 59 | 279 | 13.0 | 19.0 | 0.00 | 0.00 | 0.00 | 32 | |
| 20260503203735 | 59 | 286 | 8.0 | 15.0 | 0.00 | 0.00 | 0.00 | 32 | |
| 20260503202735 | 59 | 265 | 12.0 | 17.0 | 0.00 | 0.00 | 0.00 | 33 | |
| 20260503201735 | 59 | 255 | 8.0 | 19.0 | 0.00 | 0.00 | 0.00 | 33 | |
| 20260503200735 | 59 | 273 | 12.0 | 14.0 | 0.00 | 0.00 | 0.00 | 34 | |
| 20260503195735 | 57 | 300 | 10.0 | 14.0 | 0.00 | 0.00 | 0.00 | 34 | |
| 20260503194735 | 58 | 234 | 3.0 | 21.0 | 0.00 | 0.00 | 0.00 | 33 | |
| 20260503193735 | 58 | 281 | 2.0 | 21.0 | 0.00 | 0.00 | 0.00 | 35 | |
| 20260503192735 | 57 | 10 | 5.0 | 20.0 | 0.00 | 0.00 | 0.00 | 33 | |
| 20260503191735 | 57 | 175 | 9.0 | 17.0 | 0.00 | 0.00 | 0.00 | 33 | |
| 20260503190735 | 57 | 274 | 8.0 | 14.0 | 0.00 | 0.00 | 0.00 | 36 | |
| 20260503185735 | 57 | 301 | 2.0 | 17.0 | 0.00 | 0.00 | 0.00 | 36 | |
| 20260503184735 | 56 | 240 | 2.0 | 20.0 | 0.00 | 0.00 | 0.00 | 34 | |
| 20260503183735 | 56 | 254 | 12.0 | 18.0 | 0.00 | 0.00 | 0.00 | 36 | |
| 20260503182735 | 56 | 300 | 5.0 | 20.0 | 0.00 | 0.00 | 0.00 | 38 | |
| 20260503181736 | 56 | 273 | 8.0 | 24.0 | 0.00 | 0.00 | 0.00 | 36 | |
| 20260503180735 | 55 | 262 | 14.0 | 17.0 | 0.00 | 0.00 | 0.00 | 37 | |
| 20260503175736 | 53 | 286 | 4.0 | 21.0 | 0.00 | 0.00 | 0.00 | 36 | |
| 20260503174735 | 53 | 282 | 15.0 | 20.0 | 0.00 | 0.00 | 0.00 | 37 | |
| 20260503173735 | 54 | 215 | 5.0 | 20.0 | 0.00 | 0.00 | 0.00 | 37 | |
| 20260503172735 | 54 | 304 | 9.0 | 18.0 | 0.00 | 0.00 | 0.00 | 36 | |
| 20260503171735 | 52 | 208 | 7.0 | 18.0 | 0.00 | 0.00 | 0.00 | 39 | |
| 20260503170736 | 52 | 255 | 8.0 | 19.0 | 0.00 | 0.00 | 0.00 | 39 | |
| 20260503150735 | 48 | 264 | 2.0 | 14.0 | 0.00 | 0.00 | 0.00 | 44 | |
| 20260503130735 | 45 | 32 | 4.0 | 10.0 | 0.00 | 0.00 | 0.00 | 61 |